Starlink 31645

operational
NORAD ID: 59264 Int'l Des: 2024-050 Owner: SPXS Country: US Constellation: starlink
LEOCIRCULAR

About Starlink 31645

Description loading...

Live Position

Loading 3D Globe...

Upcoming Passes

Altitude History

Altitude vs Time

uPlot chart will show altitude changes over time

Two-Line Element Set

1 59264U 24050L 25305.58617632 .00025234 00000-0 86113-3 0 9998
2 59264 53.1592 56.1408 0001466 89.8143 270.3026 15.30202995 90934
Epoch: Nov 1, 2025 • Age: 22 hours

Current Status

Altitude 480.6 km
Velocity 7.63 km/s
Sub-Earth Point 53.11°N, 79.68°W
Launch Date Mar 19, 2024
Age 1.6 years
Type internet

Technical Details

Classification Payload
Mass 730.00 kg
Dry Mass 700.00 kg
Total Mass 730.00 kg
Length 0.30 m
Diameter 4.10 m
Span 29.00 m
Shape Box + pan
Manufacturer SPXS
Bus Type Starlink V2M
Phase Status In Orbit
Owner/State SPXS/US

Large Constellations

Loading constellations...